Meteo pe oră la Abbeville

Astăzi, 26 Iulie, Luni

Timp Temperatura Precipitaţii Vânt Presiune Umiditate
00:00 +14°C° 0 mm 3 m/s 754 mmHg 97%
01:00 +14°C° 0.1 mm 3 m/s 754 mmHg 97%
02:00 +14°C° 0.1 mm 3 m/s 754 mmHg 98%
03:00 +14°C° 0.1 mm 3 m/s 754 mmHg 98%
04:00 +16°C° 0.2 mm 3 m/s 754 mmHg 97%
05:00 +16°C° 0.2 mm 3 m/s 754 mmHg 96%
06:00 +17°C° 0.2 mm 3 m/s 755 mmHg 95%
07:00 +18°C° 0.3 mm 3 m/s 755 mmHg 92%
08:00 +19°C° 0.3 mm 3 m/s 755 mmHg 89%
09:00 +19°C° 0.3 mm 4 m/s 755 mmHg 85%
10:00 +20°C° 0.6 mm 4 m/s 755 mmHg 82%
11:00 +21°C° 0.6 mm 4 m/s 756 mmHg 79%
12:00 +21°C° 0.6 mm 4 m/s 756 mmHg 76%
13:00 +22°C° 0.3 mm 4 m/s 756 mmHg 74%
14:00 +22°C° 0.3 mm 4 m/s 756 mmHg 71%
15:00 +22°C° 0.3 mm 4 m/s 756 mmHg 69%
16:00 +22°C° 0.1 mm 4 m/s 756 mmHg 73%
17:00 +21°C° 0.1 mm 3 m/s 756 mmHg 77%
18:00 +20°C° 0.1 mm 3 m/s 756 mmHg 81%
19:00 +19°C° 0 mm 3 m/s 756 mmHg 85%
20:00 +18°C° 0 mm 2 m/s 756 mmHg 89%
21:00 +17°C° 0 mm 2 m/s 756 mmHg 92%
22:00 +16°C° 0 mm 2 m/s 756 mmHg 92%
23:00 +16°C° 0 mm 3 m/s 756 mmHg 92%

Mâine, 27 Iulie, Marţi

Timp Temperatura Precipitaţii Vânt Presiune Umiditate
00:00 +16°C° 0 mm 3 m/s 756 mmHg 92%
01:00 +16°C° 0 mm 3 m/s 756 mmHg 91%
02:00 +16°C° 0 mm 3 m/s 756 mmHg 90%
03:00 +16°C° 0 mm 3 m/s 756 mmHg 89%
04:00 +16°C° 0.1 mm 3 m/s 756 mmHg 89%
05:00 +17°C° 0.1 mm 3 m/s 756 mmHg 89%
06:00 +17°C° 0.1 mm 3 m/s 755 mmHg 89%
07:00 +18°C° 0 mm 3 m/s 755 mmHg 84%
08:00 +20°C° 0 mm 3 m/s 755 mmHg 79%
09:00 +21°C° 0 mm 4 m/s 755 mmHg 74%
10:00 +21°C° 0.7 mm 4 m/s 755 mmHg 74%
11:00 +21°C° 0.7 mm 4 m/s 755 mmHg 75%
12:00 +21°C° 0.7 mm 4 m/s 755 mmHg 75%
13:00 +20°C° 1.5 mm 4 m/s 755 mmHg 79%
14:00 +19°C° 1.5 mm 4 m/s 755 mmHg 83%
15:00 +18°C° 1.5 mm 4 m/s 755 mmHg 87%
16:00 +18°C° 0.1 mm 4 m/s 755 mmHg 87%
17:00 +18°C° 0.1 mm 4 m/s 755 mmHg 87%
18:00 +18°C° 0.1 mm 3 m/s 755 mmHg 86%
19:00 +18°C° 0.2 mm 4 m/s 755 mmHg 89%
20:00 +17°C° 0.2 mm 4 m/s 755 mmHg 91%
21:00 +15°C° 0.2 mm 4 m/s 756 mmHg 94%
22:00 +15°C° 0 mm 4 m/s 756 mmHg 94%
23:00 +14°C° 0 mm 4 m/s 756 mmHg 94%

Poimâine, 28 Iulie, Miercuri

Timp Temperatura Precipitaţii Vânt Presiune Umiditate
00:00 +13°C° 0 mm 4 m/s 756 mmHg 95%
01:00 +13°C° 0 mm 5 m/s 756 mmHg 95%
02:00 +13°C° 0 mm 5 m/s 756 mmHg 95%
03:00 +13°C° 0 mm 5 m/s 756 mmHg 95%
04:00 +13°C° 0 mm 6 m/s 756 mmHg 95%
05:00 +13°C° 0 mm 6 m/s 756 mmHg 94%
06:00 +14°C° 0 mm 6 m/s 756 mmHg 93%
07:00 +15°C° 0 mm 6 m/s 756 mmHg 88%
08:00 +16°C° 0 mm 7 m/s 756 mmHg 82%
09:00 +18°C° 0 mm 7 m/s 756 mmHg 76%
10:00 +18°C° 0.1 mm 7 m/s 756 mmHg 73%
11:00 +20°C° 0.1 mm 7 m/s 756 mmHg 70%
12:00 +21°C° 0.1 mm 7 m/s 756 mmHg 66%
13:00 +21°C° 0.3 mm 7 m/s 756 mmHg 67%
14:00 +21°C° 0.3 mm 7 m/s 756 mmHg 68%
15:00 +20°C° 0.3 mm 7 m/s 756 mmHg 69%
16:00 +20°C° 0.1 mm 6 m/s 756 mmHg 70%
17:00 +19°C° 0.1 mm 6 m/s 756 mmHg 72%
18:00 +19°C° 0.1 mm 5 m/s 756 mmHg 73%
19:00 +17°C° 0 mm 5 m/s 757 mmHg 77%
20:00 +15°C° 0 mm 5 m/s 757 mmHg 80%
21:00 +14°C° 0 mm 4 m/s 757 mmHg 84%
22:00 +14°C° 0 mm 4 m/s 757 mmHg 86%
23:00 +13°C° 0 mm 5 m/s 757 mmHg 87%

29 Iulie, Joi

Timp Temperatura Precipitaţii Vânt Presiune Umiditate
00:00 +13°C° 0 mm 5 m/s 757 mmHg 89%
01:00 +13°C° 0 mm 4 m/s 757 mmHg 91%
02:00 +12°C° 0 mm 4 m/s 757 mmHg 93%
03:00 +12°C° 0 mm 4 m/s 757 mmHg 95%
04:00 +12°C° 0 mm 4 m/s 757 mmHg 93%
05:00 +13°C° 0 mm 4 m/s 757 mmHg 92%
06:00 +13°C° 0 mm 4 m/s 757 mmHg 90%
07:00 +15°C° 0 mm 4 m/s 757 mmHg 83%
08:00 +16°C° 0 mm 5 m/s 757 mmHg 77%
09:00 +19°C° 0 mm 5 m/s 757 mmHg 70%
10:00 +19°C° 0 mm 5 m/s 757 mmHg 66%
11:00 +20°C° 0 mm 5 m/s 756 mmHg 62%
12:00 +21°C° 0 mm 5 m/s 756 mmHg 58%
13:00 +21°C° 0 mm 5 m/s 756 mmHg 58%
14:00 +21°C° 0 mm 4 m/s 755 mmHg 58%
15:00 +21°C° 0 mm 4 m/s 755 mmHg 58%
16:00 +20°C° 0 mm 3 m/s 754 mmHg 63%
17:00 +19°C° 0 mm 3 m/s 754 mmHg 69%
18:00 +18°C° 0 mm 2 m/s 754 mmHg 74%
19:00 +17°C° 0.3 mm 4 m/s 754 mmHg 79%
20:00 +15°C° 0.3 mm 5 m/s 754 mmHg 84%
21:00 +14°C° 0.3 mm 7 m/s 754 mmHg 89%
22:00 +14°C° 0 mm 7 m/s 754 mmHg 90%
23:00 +13°C° 0 mm 6 m/s 755 mmHg 90%

30 Iulie, Vineri

Timp Temperatura Precipitaţii Vânt Presiune Umiditate
00:00 +11°C° 0 mm 6 m/s 755 mmHg 90%
01:00 +11°C° 0 mm 6 m/s 755 mmHg 91%
02:00 +11°C° 0 mm 6 m/s 755 mmHg 93%
03:00 +11°C° 0 mm 6 m/s 755 mmHg 94%
04:00 +11°C° 0.1 mm 6 m/s 755 mmHg 94%
05:00 +11°C° 0.1 mm 6 m/s 755 mmHg 93%
06:00 +13°C° 0.1 mm 6 m/s 755 mmHg 93%
07:00 +14°C° 0.1 mm 7 m/s 755 mmHg 90%
08:00 +15°C° 0.1 mm 7 m/s 755 mmHg 87%
09:00 +16°C° 0.1 mm 7 m/s 755 mmHg 85%
10:00 +17°C° 0.1 mm 7 m/s 755 mmHg 81%
11:00 +18°C° 0.1 mm 7 m/s 755 mmHg 77%
12:00 +20°C° 0.1 mm 8 m/s 755 mmHg 73%
13:00 +20°C° 0 mm 7 m/s 756 mmHg 71%
14:00 +20°C° 0 mm 7 m/s 756 mmHg 70%
15:00 +20°C° 0 mm 7 m/s 756 mmHg 69%
16:00 +20°C° 0 mm 6 m/s 756 mmHg 72%
17:00 +19°C° 0 mm 6 m/s 756 mmHg 75%
18:00 +17°C° 0 mm 5 m/s 756 mmHg 78%
19:00 +16°C° 0 mm 5 m/s 756 mmHg 83%
20:00 +15°C° 0 mm 5 m/s 756 mmHg 87%
21:00 +14°C° 0 mm 4 m/s 756 mmHg 91%
22:00 +14°C° 0 mm 4 m/s 756 mmHg 91%
23:00 +14°C° 0 mm 5 m/s 756 mmHg 91%

31 Iulie, Sâmbătă

Timp Temperatura Precipitaţii Vânt Presiune Umiditate
00:00 +14°C° 0 mm 5 m/s 756 mmHg 90%
01:00 +14°C° 0 mm 5 m/s 756 mmHg 92%
02:00 +14°C° 0 mm 4 m/s 755 mmHg 93%
03:00 +13°C° 0 mm 4 m/s 755 mmHg 95%
04:00 +14°C° 0 mm 4 m/s 756 mmHg 93%
05:00 +14°C° 0 mm 5 m/s 756 mmHg 91%
06:00 +15°C° 0 mm 5 m/s 756 mmHg 89%
07:00 +16°C° 0 mm 5 m/s 756 mmHg 84%
08:00 +17°C° 0 mm 6 m/s 756 mmHg 78%
09:00 +19°C° 0 mm 6 m/s 756 mmHg 72%
10:00 +20°C° 0.1 mm 7 m/s 756 mmHg 68%
11:00 +20°C° 0.1 mm 7 m/s 756 mmHg 64%
12:00 +21°C° 0.1 mm 7 m/s 756 mmHg 61%
13:00 +20°C° 0 mm 7 m/s 756 mmHg 61%
14:00 +20°C° 0 mm 7 m/s 756 mmHg 61%
15:00 +20°C° 0 mm 7 m/s 756 mmHg 61%
16:00 +18°C° 0 mm 7 m/s 756 mmHg 66%
17:00 +17°C° 0 mm 6 m/s 756 mmHg 71%
18:00 +17°C° 0 mm 6 m/s 756 mmHg 76%
19:00 +16°C° 0 mm 5 m/s 757 mmHg 80%
20:00 +14°C° 0 mm 5 m/s 757 mmHg 85%
21:00 +13°C° 0 mm 4 m/s 757 mmHg 90%
22:00 +13°C° 0 mm 4 m/s 757 mmHg 90%
23:00 +14°C° 0 mm 5 m/s 757 mmHg 90%
Arată mai mult

Formular de consimțământ

Meteoprog și furnizorii noștri de servicii pot stoca și accesa date personale, precum cookies, identificatori de dispozitiv sau alte tehnologii similare pe dispozitivul dumneavoastră și procesa astfel de date pentru a personaliza conținutul și reclamele, dar și pentru a oferi caracteristici de social media și pentru a analiza traficul.

  • Stocarea și/sau accesarea informațiilor pe dispozitivul dumneavoastră

    Cookies, identificatori de dispozitiv sau alte informații pot fi stocate sau accesate pe dispozitiv în scopurile indicate mai sus.

  • Reclame și conținut personalizat, evaluarea reclamelor și a conținutului, informații despre audiențe și dezvoltarea produselor

    Reclamele și conținutul pot fi personalizate pe baza unui profil. Pot fi adăugate date suplimentare pentru a personaliza mai bine reclamele și conținutul. Performanța reclamelor și conținutului poate fi măsurată. Pot fi obținute informații despre utilizatorii care au văzut reclamele și conținutul. Aceste date pot fi utilizate pentru a dezvolta sau îmbunătăți experiența utilizatorilor, sistemele și software-ul.

Dând clic pe ‘Sunt de acord’, permiteți utilizarea cookie-urilor menționate, a identificatorilor de dispozitiv, balizelor web sau altor tehnologii similare. Setările pot fi modificate din browser-ul dispozitivului dumneavoastră.

În anumite scopuri, interesele legitime pot prima asupra consimțământului. Puteți citi mai multe informații în acest sens în Politica privind Confidențialitatea Datelor și Cookie.